Year,Month,Day,Hour,Minute,Value (Times are PST for temperature in C)
2015,02,18,00,00,3.50
2015,02,18,00,01,3.50
2015,02,18,00,02,3.50
2015,02,18,00,03,3.50
2015,02,18,00,04,3.50
2015,02,18,00,05,3.50
2015,02,18,00,06,3.50
2015,02,18,00,07,3.50
2015,02,18,00,08,3.50
2015,02,18,00,09,3.50
2015,02,18,00,10,3.50
2015,02,18,00,11,3.60
2015,02,18,00,12,3.60
2015,02,18,00,13,3.60
2015,02,18,00,14,3.50
2015,02,18,00,15,3.50
2015,02,18,00,16,3.50
2015,02,18,00,17,3.50
2015,02,18,00,18,3.50
2015,02,18,00,19,3.50
2015,02,18,00,20,3.50
2015,02,18,00,21,3.50
2015,02,18,00,22,3.50
2015,02,18,00,23,3.50
2015,02,18,00,24,3.50
2015,02,18,00,25,3.50
2015,02,18,00,26,3.60
2015,02,18,00,27,3.60
2015,02,18,00,28,3.60
2015,02,18,00,29,3.60
2015,02,18,00,30,3.60
2015,02,18,00,31,3.60
2015,02,18,00,32,3.60
2015,02,18,00,33,3.50
2015,02,18,00,34,3.50
2015,02,18,00,35,3.50
2015,02,18,00,36,3.50
2015,02,18,00,37,3.50
2015,02,18,00,38,3.50
2015,02,18,00,39,3.50
2015,02,18,00,40,3.50
2015,02,18,00,41,3.60
2015,02,18,00,42,3.60
2015,02,18,00,43,3.60
2015,02,18,00,44,3.60
2015,02,18,00,45,3.60
2015,02,18,00,46,3.60
2015,02,18,00,47,3.60
2015,02,18,00,48,3.60
2015,02,18,00,49,3.60
2015,02,18,00,50,3.60
2015,02,18,00,51,3.60
2015,02,18,00,52,3.60
2015,02,18,00,53,3.60
2015,02,18,00,54,3.60
2015,02,18,00,55,3.50
2015,02,18,00,56,3.50
2015,02,18,00,57,3.50
2015,02,18,00,58,3.50
2015,02,18,00,59,3.50
2015,02,18,01,00,3.50
2015,02,18,01,01,3.50
2015,02,18,01,02,3.50
2015,02,18,01,03,3.50
2015,02,18,01,04,3.50
2015,02,18,01,05,3.50
2015,02,18,01,06,3.50
2015,02,18,01,07,3.50
2015,02,18,01,08,3.50
2015,02,18,01,09,3.50
2015,02,18,01,10,3.50
2015,02,18,01,11,3.50
2015,02,18,01,12,3.50
2015,02,18,01,13,3.50
2015,02,18,01,14,3.50
2015,02,18,01,15,3.50
2015,02,18,01,16,3.40
2015,02,18,01,17,3.40
2015,02,18,01,18,3.40
2015,02,18,01,19,3.40
2015,02,18,01,20,3.40
2015,02,18,01,21,3.40
2015,02,18,01,22,3.40
2015,02,18,01,23,3.40
2015,02,18,01,24,3.40
2015,02,18,01,25,3.40
2015,02,18,01,26,3.40
2015,02,18,01,27,3.40
2015,02,18,01,28,3.40
2015,02,18,01,29,3.40
2015,02,18,01,30,3.40
2015,02,18,01,31,3.40
2015,02,18,01,32,3.40
2015,02,18,01,33,3.40
2015,02,18,01,34,3.40
2015,02,18,01,35,3.40
2015,02,18,01,36,3.50
2015,02,18,01,37,3.50
2015,02,18,01,38,3.50
2015,02,18,01,39,3.50
2015,02,18,01,40,3.50
2015,02,18,01,41,3.50
2015,02,18,01,42,3.50
2015,02,18,01,43,3.50
2015,02,18,01,44,3.50
2015,02,18,01,45,3.50
2015,02,18,01,46,3.50
2015,02,18,01,47,3.50
2015,02,18,01,48,3.50
2015,02,18,01,49,3.50
2015,02,18,01,50,3.50
2015,02,18,01,51,3.50
2015,02,18,01,52,3.40
2015,02,18,01,53,3.40
2015,02,18,01,54,3.40
2015,02,18,01,55,3.40
2015,02,18,01,56,3.40
2015,02,18,01,57,3.40
2015,02,18,01,58,3.40
2015,02,18,01,59,3.40
2015,02,18,02,00,3.40
2015,02,18,02,01,3.40
2015,02,18,02,02,3.40
2015,02,18,02,03,3.30
2015,02,18,02,04,3.30
2015,02,18,02,05,3.30
2015,02,18,02,06,3.30
2015,02,18,02,07,3.30
2015,02,18,02,08,3.30
2015,02,18,02,09,3.30
2015,02,18,02,10,3.30
2015,02,18,02,11,3.30
2015,02,18,02,12,3.30
2015,02,18,02,13,3.30
2015,02,18,02,14,3.30
2015,02,18,02,15,3.30
2015,02,18,02,16,3.30
2015,02,18,02,17,3.30
2015,02,18,02,18,3.30
2015,02,18,02,19,3.30
2015,02,18,02,20,3.30
2015,02,18,02,21,3.30
2015,02,18,02,22,3.30
2015,02,18,02,23,3.30
2015,02,18,02,24,3.30
2015,02,18,02,25,3.30
2015,02,18,02,26,3.30
2015,02,18,02,27,3.30
2015,02,18,02,28,3.30
2015,02,18,02,29,3.30
2015,02,18,02,30,3.30
2015,02,18,02,31,3.30
2015,02,18,02,32,3.30
2015,02,18,02,33,3.30
2015,02,18,02,34,3.30
2015,02,18,02,35,3.30
2015,02,18,02,36,3.30
2015,02,18,02,37,3.30
2015,02,18,02,38,3.30
2015,02,18,02,39,3.30
2015,02,18,02,40,3.30
2015,02,18,02,41,3.30
2015,02,18,02,42,3.30
2015,02,18,02,43,3.30
2015,02,18,02,44,3.30
2015,02,18,02,45,3.30
2015,02,18,02,46,3.30
2015,02,18,02,47,3.30
2015,02,18,02,48,3.30
2015,02,18,02,49,3.30
2015,02,18,02,50,3.30
2015,02,18,02,51,3.30
2015,02,18,02,52,3.30
2015,02,18,02,53,3.30
2015,02,18,02,54,3.40
2015,02,18,02,55,3.40
2015,02,18,02,56,3.40
2015,02,18,02,57,3.40
2015,02,18,02,58,3.40
2015,02,18,02,59,3.40
2015,02,18,03,00,3.40
2015,02,18,03,01,3.50
2015,02,18,03,02,3.50
2015,02,18,03,03,3.50
2015,02,18,03,04,3.40
2015,02,18,03,05,3.40
2015,02,18,03,06,3.40
2015,02,18,03,07,3.40
2015,02,18,03,08,3.40
2015,02,18,03,09,3.40
2015,02,18,03,10,3.40
2015,02,18,03,11,3.40
2015,02,18,03,12,3.40
2015,02,18,03,13,3.30
2015,02,18,03,14,3.30
2015,02,18,03,15,3.30
2015,02,18,03,16,3.30
2015,02,18,03,17,3.30
2015,02,18,03,18,3.30
2015,02,18,03,19,3.30
2015,02,18,03,20,3.30
2015,02,18,03,21,3.30
2015,02,18,03,22,3.30
2015,02,18,03,23,3.30
2015,02,18,03,24,3.30
2015,02,18,03,25,3.30
2015,02,18,03,26,3.30
2015,02,18,03,27,3.30
2015,02,18,03,28,3.30
2015,02,18,03,29,3.30
2015,02,18,03,30,3.30
2015,02,18,03,31,3.20
2015,02,18,03,32,3.30
2015,02,18,03,33,3.20
2015,02,18,03,34,3.20
2015,02,18,03,35,3.20
2015,02,18,03,36,3.20
2015,02,18,03,37,3.20
2015,02,18,03,38,3.20
2015,02,18,03,39,3.20
2015,02,18,03,40,3.20
2015,02,18,03,41,3.20
2015,02,18,03,42,3.20
2015,02,18,03,43,3.20
2015,02,18,03,44,3.20
2015,02,18,03,45,3.20
2015,02,18,03,46,3.20
2015,02,18,03,47,3.10
2015,02,18,03,48,3.10
2015,02,18,03,49,3.10
2015,02,18,03,50,3.10
2015,02,18,03,51,3.10
2015,02,18,03,52,3.10
2015,02,18,03,53,3.10
2015,02,18,03,54,3.10
2015,02,18,03,55,3.10
2015,02,18,03,56,3.10
2015,02,18,03,57,3.10
2015,02,18,03,58,3.10
2015,02,18,03,59,3.10
2015,02,18,04,00,3.10
2015,02,18,04,01,3.10
2015,02,18,04,02,3.10
2015,02,18,04,03,3.10
2015,02,18,04,04,3.10
2015,02,18,04,05,3.10
2015,02,18,04,06,3.10
2015,02,18,04,07,3.10
2015,02,18,04,08,3.10
2015,02,18,04,09,3.00
2015,02,18,04,10,3.00
2015,02,18,04,11,3.00
2015,02,18,04,12,3.00
2015,02,18,04,13,3.00
2015,02,18,04,14,2.90
2015,02,18,04,15,2.90
2015,02,18,04,16,2.90
2015,02,18,04,17,2.90
2015,02,18,04,18,2.90
2015,02,18,04,19,2.90
2015,02,18,04,20,2.90
2015,02,18,04,21,2.80
2015,02,18,04,22,2.80
2015,02,18,04,23,2.80
2015,02,18,04,24,2.80
2015,02,18,04,25,2.80
2015,02,18,04,26,2.80
2015,02,18,04,27,2.80
2015,02,18,04,28,2.80
2015,02,18,04,29,2.80
2015,02,18,04,30,2.80
2015,02,18,04,31,2.70
2015,02,18,04,32,2.70
2015,02,18,04,33,2.70
2015,02,18,04,34,2.70
2015,02,18,04,35,2.70
2015,02,18,04,36,2.70
2015,02,18,04,37,2.70
2015,02,18,04,38,2.70
2015,02,18,04,39,2.70
2015,02,18,04,40,2.60
2015,02,18,04,41,2.60
2015,02,18,04,42,2.60
2015,02,18,04,43,2.60
2015,02,18,04,44,2.60
2015,02,18,04,45,2.60
2015,02,18,04,46,2.60
2015,02,18,04,47,2.50
2015,02,18,04,48,2.50
2015,02,18,04,49,2.50
2015,02,18,04,50,2.50
2015,02,18,04,51,2.50
2015,02,18,04,52,2.50
2015,02,18,04,53,2.40
2015,02,18,04,54,2.40
2015,02,18,04,55,2.40
2015,02,18,04,56,2.40
2015,02,18,04,57,2.40
2015,02,18,04,58,2.40
2015,02,18,04,59,2.40
2015,02,18,05,00,2.40
2015,02,18,05,01,2.40
2015,02,18,05,02,2.40
2015,02,18,05,03,2.40
2015,02,18,05,04,2.40
2015,02,18,05,05,2.40
2015,02,18,05,06,2.40
2015,02,18,05,07,2.40
2015,02,18,05,08,2.40
2015,02,18,05,09,2.40
2015,02,18,05,10,2.40
2015,02,18,05,11,2.40
2015,02,18,05,12,2.40
2015,02,18,05,13,2.40
2015,02,18,05,14,2.30
2015,02,18,05,15,2.30
2015,02,18,05,16,2.30
2015,02,18,05,17,2.30
2015,02,18,05,18,2.30
2015,02,18,05,19,2.30
2015,02,18,05,20,2.30
2015,02,18,05,21,2.30
2015,02,18,05,22,2.30
2015,02,18,05,23,2.30
2015,02,18,05,24,2.30
2015,02,18,05,25,2.30
2015,02,18,05,26,2.30
2015,02,18,05,27,2.30
2015,02,18,05,28,2.30
2015,02,18,05,29,2.30
2015,02,18,05,30,2.30
2015,02,18,05,31,2.30
2015,02,18,05,32,2.30
2015,02,18,05,33,2.30
2015,02,18,05,34,2.30
2015,02,18,05,35,2.20
2015,02,18,05,36,2.20
2015,02,18,05,37,2.20
2015,02,18,05,38,2.20
2015,02,18,05,39,2.20
2015,02,18,05,40,2.20
2015,02,18,05,41,2.20
2015,02,18,05,42,2.20
2015,02,18,05,43,2.20
2015,02,18,05,44,2.20
2015,02,18,05,45,2.20
2015,02,18,05,46,2.20
2015,02,18,05,47,2.20
2015,02,18,05,48,2.20
2015,02,18,05,49,2.20
2015,02,18,05,50,2.20
2015,02,18,05,51,2.20
2015,02,18,05,52,2.20
2015,02,18,05,53,2.20
2015,02,18,05,54,2.20
2015,02,18,05,55,2.20
2015,02,18,05,56,2.20
2015,02,18,05,57,2.20
2015,02,18,05,58,2.20
2015,02,18,05,59,2.20
2015,02,18,06,00,2.20
2015,02,18,06,01,2.20
2015,02,18,06,02,2.20
2015,02,18,06,03,2.20
2015,02,18,06,04,2.20
2015,02,18,06,05,2.20
2015,02,18,06,06,2.20
2015,02,18,06,07,2.20
2015,02,18,06,08,2.20
2015,02,18,06,09,2.20
2015,02,18,06,10,2.20
2015,02,18,06,11,2.20
2015,02,18,06,12,2.20
2015,02,18,06,13,2.20
2015,02,18,06,14,2.20
2015,02,18,06,15,2.20
2015,02,18,06,16,2.20
2015,02,18,06,17,2.20
2015,02,18,06,18,2.30
2015,02,18,06,19,2.30
2015,02,18,06,20,2.30
2015,02,18,06,21,2.30
2015,02,18,06,22,2.30
2015,02,18,06,23,2.30
2015,02,18,06,24,2.30
2015,02,18,06,25,2.30
2015,02,18,06,26,2.30
2015,02,18,06,27,2.30
2015,02,18,06,28,2.30
2015,02,18,06,29,2.30
2015,02,18,06,30,2.30
2015,02,18,06,31,2.30
2015,02,18,06,32,2.30
2015,02,18,06,33,2.30
2015,02,18,06,34,2.30
2015,02,18,06,35,2.30
2015,02,18,06,36,2.30
2015,02,18,06,37,2.30
2015,02,18,06,38,2.30
2015,02,18,06,39,2.30
2015,02,18,06,40,2.30
2015,02,18,06,41,2.30
2015,02,18,06,42,2.30
2015,02,18,06,43,2.30
2015,02,18,06,44,2.30
2015,02,18,06,45,2.30
2015,02,18,06,46,2.30
2015,02,18,06,47,2.30
2015,02,18,06,48,2.30
2015,02,18,06,49,2.30
2015,02,18,06,50,2.30
2015,02,18,06,51,2.30
2015,02,18,06,52,2.30
2015,02,18,06,53,2.30
2015,02,18,06,54,2.30
2015,02,18,06,55,2.30
2015,02,18,06,56,2.30
2015,02,18,06,57,2.30
2015,02,18,06,58,2.40
2015,02,18,06,59,2.40
2015,02,18,07,00,2.40
2015,02,18,07,01,2.50
2015,02,18,07,02,2.50
2015,02,18,07,03,2.60
2015,02,18,07,04,2.60
2015,02,18,07,05,2.70
2015,02,18,07,06,2.70
2015,02,18,07,07,2.80
2015,02,18,07,08,2.80
2015,02,18,07,09,2.80
2015,02,18,07,10,2.90
2015,02,18,07,11,2.90
2015,02,18,07,12,2.90
2015,02,18,07,13,2.90
2015,02,18,07,14,2.90
2015,02,18,07,15,2.90
2015,02,18,07,16,2.90
2015,02,18,07,17,2.90
2015,02,18,07,18,2.90
2015,02,18,07,19,2.90
2015,02,18,07,20,2.90
2015,02,18,07,21,2.90
2015,02,18,07,22,2.90
2015,02,18,07,23,2.90
2015,02,18,07,24,2.90
2015,02,18,07,25,3.00
2015,02,18,07,26,3.00
2015,02,18,07,27,3.00
2015,02,18,07,28,3.10
2015,02,18,07,29,3.10
2015,02,18,07,30,3.10
2015,02,18,07,31,3.10
2015,02,18,07,32,3.10
2015,02,18,07,33,3.20
2015,02,18,07,34,3.20
2015,02,18,07,35,3.20
2015,02,18,07,36,3.20
2015,02,18,07,37,3.20
2015,02,18,07,38,3.20
2015,02,18,07,39,3.20
2015,02,18,07,40,3.20
2015,02,18,07,41,3.20
2015,02,18,07,42,3.20
2015,02,18,07,43,3.20
2015,02,18,07,44,3.20
2015,02,18,07,45,3.20
2015,02,18,07,46,3.20
2015,02,18,07,47,3.20
2015,02,18,07,48,3.20
2015,02,18,07,49,3.20
2015,02,18,07,50,3.20
2015,02,18,07,51,3.20
2015,02,18,07,52,3.20
2015,02,18,07,53,3.20
2015,02,18,07,54,3.20
2015,02,18,07,55,3.30
2015,02,18,07,56,3.30
2015,02,18,07,57,3.30
2015,02,18,07,58,3.30
2015,02,18,07,59,3.30
2015,02,18,08,00,3.30
2015,02,18,08,01,3.30
2015,02,18,08,02,3.30
2015,02,18,08,03,3.30
2015,02,18,08,04,3.30
2015,02,18,08,05,3.30
2015,02,18,08,06,3.30
2015,02,18,08,07,3.30
2015,02,18,08,08,3.30
2015,02,18,08,09,3.30
2015,02,18,08,10,3.30
2015,02,18,08,11,3.30
2015,02,18,08,12,3.30
2015,02,18,08,13,3.30
2015,02,18,08,14,3.40
2015,02,18,08,15,3.40
2015,02,18,08,16,3.40
2015,02,18,08,17,3.40
2015,02,18,08,18,3.40
2015,02,18,08,19,3.40
2015,02,18,08,20,3.40
2015,02,18,08,21,3.40
2015,02,18,08,22,3.40
2015,02,18,08,23,3.40
2015,02,18,08,24,3.40
2015,02,18,08,25,3.40
2015,02,18,08,26,3.40
2015,02,18,08,27,3.40
2015,02,18,08,28,3.50
2015,02,18,08,29,3.50
2015,02,18,08,30,3.50
2015,02,18,08,31,3.50
2015,02,18,08,32,3.50
2015,02,18,08,33,3.50
2015,02,18,08,34,3.50
2015,02,18,08,35,3.50
2015,02,18,08,36,3.60
2015,02,18,08,37,3.60
2015,02,18,08,38,3.60
2015,02,18,08,39,3.60
2015,02,18,08,40,3.60
2015,02,18,08,41,3.60
2015,02,18,08,42,3.60
2015,02,18,08,43,3.60
2015,02,18,08,44,3.60
2015,02,18,08,45,3.60
2015,02,18,08,46,3.70
2015,02,18,08,47,3.70
2015,02,18,08,48,3.70
2015,02,18,08,49,3.70
2015,02,18,08,50,3.70
2015,02,18,08,51,3.70
2015,02,18,08,52,3.70
2015,02,18,08,53,3.70
2015,02,18,08,54,3.60
2015,02,18,08,55,3.60
2015,02,18,08,56,3.60
2015,02,18,08,57,3.60
2015,02,18,08,58,3.60
2015,02,18,08,59,3.60
2015,02,18,09,00,3.70
2015,02,18,09,01,3.70
2015,02,18,09,02,3.70
2015,02,18,09,03,3.70
2015,02,18,09,04,3.80
2015,02,18,09,05,3.80
2015,02,18,09,06,3.90
2015,02,18,09,07,4.00
2015,02,18,09,08,4.00
2015,02,18,09,09,4.10
2015,02,18,09,10,4.20
2015,02,18,09,11,4.20
2015,02,18,09,12,4.30
2015,02,18,09,13,4.30
2015,02,18,09,14,4.30
2015,02,18,09,15,4.40
2015,02,18,09,16,4.50
2015,02,18,09,17,4.50
2015,02,18,09,18,4.60
2015,02,18,09,19,4.70
2015,02,18,09,20,4.80
2015,02,18,09,21,4.80
2015,02,18,09,22,4.90
2015,02,18,09,23,5.00
2015,02,18,09,24,5.10
2015,02,18,09,25,5.10
2015,02,18,09,26,5.20
2015,02,18,09,27,5.20
2015,02,18,09,28,5.30
2015,02,18,09,29,5.40
2015,02,18,09,30,5.50
2015,02,18,09,31,5.50
2015,02,18,09,32,5.60
2015,02,18,09,33,5.70
2015,02,18,09,34,5.70
2015,02,18,09,35,5.80
2015,02,18,09,36,5.80
2015,02,18,09,37,5.80
2015,02,18,09,38,5.80
2015,02,18,09,39,5.80
2015,02,18,09,40,5.80
2015,02,18,09,41,5.80
2015,02,18,09,42,5.80
2015,02,18,09,43,5.90
2015,02,18,09,44,6.00
2015,02,18,09,45,6.00
2015,02,18,09,46,6.00
2015,02,18,09,47,6.00
2015,02,18,09,48,5.90
2015,02,18,09,49,6.00
2015,02,18,09,50,6.10
2015,02,18,09,51,6.20
2015,02,18,09,52,6.20
2015,02,18,09,53,6.30
2015,02,18,09,54,6.40
2015,02,18,09,55,6.50
2015,02,18,09,56,6.60
2015,02,18,09,57,6.70
2015,02,18,09,58,6.90
2015,02,18,09,59,7.00
2015,02,18,10,00,7.10
2015,02,18,10,01,7.20
2015,02,18,10,02,7.30
2015,02,18,10,03,7.40
2015,02,18,10,04,7.40
2015,02,18,10,05,7.40
2015,02,18,10,06,7.50
2015,02,18,10,07,7.70
2015,02,18,10,08,7.80
2015,02,18,10,09,7.80
2015,02,18,10,10,7.70
2015,02,18,10,11,7.70
2015,02,18,10,12,7.70
2015,02,18,10,13,7.70
2015,02,18,10,14,7.70
2015,02,18,10,15,7.80
2015,02,18,10,16,8.00
2015,02,18,10,17,8.10
2015,02,18,10,18,8.30
2015,02,18,10,19,8.30
2015,02,18,10,20,8.40
2015,02,18,10,21,8.50
2015,02,18,10,22,8.60
2015,02,18,10,23,8.70
2015,02,18,10,24,8.80
2015,02,18,10,25,8.80
2015,02,18,10,26,9.00
2015,02,18,10,27,9.10
2015,02,18,10,28,9.20
2015,02,18,10,29,9.30
2015,02,18,10,30,9.50
2015,02,18,10,31,9.60
2015,02,18,10,32,9.60
2015,02,18,10,33,9.70
2015,02,18,10,34,9.80
2015,02,18,10,35,9.90
2015,02,18,10,36,10.00
2015,02,18,10,37,10.00
2015,02,18,10,38,10.10
2015,02,18,10,39,10.10
2015,02,18,10,40,10.10
2015,02,18,10,41,10.20
2015,02,18,10,42,10.30
2015,02,18,10,43,10.40
2015,02,18,10,44,10.40
2015,02,18,10,45,10.50
2015,02,18,10,46,10.50
2015,02,18,10,47,10.50
2015,02,18,10,48,10.60
2015,02,18,10,49,10.60
2015,02,18,10,50,10.70
2015,02,18,10,51,10.70
2015,02,18,10,52,10.80
2015,02,18,10,53,10.80
2015,02,18,10,54,10.80
2015,02,18,10,55,10.80
2015,02,18,10,56,10.90
2015,02,18,10,57,10.90
2015,02,18,10,58,10.90
2015,02,18,10,59,10.90
2015,02,18,11,00,10.90
2015,02,18,11,01,10.90
2015,02,18,11,02,10.80
2015,02,18,11,03,10.90
2015,02,18,11,04,10.90
2015,02,18,11,05,10.90
2015,02,18,11,06,10.90
2015,02,18,11,07,11.00
2015,02,18,11,08,11.00
2015,02,18,11,09,11.10
2015,02,18,11,10,11.20
2015,02,18,11,11,11.20
2015,02,18,11,12,11.20
2015,02,18,11,13,11.20
2015,02,18,11,14,11.20
2015,02,18,11,15,11.20
2015,02,18,11,16,11.20
2015,02,18,11,17,11.30
2015,02,18,11,18,11.30
2015,02,18,11,19,11.30
2015,02,18,11,20,11.40
2015,02,18,11,21,11.40
2015,02,18,11,22,11.40
2015,02,18,11,23,11.40
2015,02,18,11,24,11.40
2015,02,18,11,25,11.50
2015,02,18,11,26,11.50
2015,02,18,11,27,11.50
2015,02,18,11,28,11.60
2015,02,18,11,29,11.60
2015,02,18,11,30,11.60
2015,02,18,11,31,11.70
2015,02,18,11,32,11.70
2015,02,18,11,33,11.70
2015,02,18,11,34,11.70
2015,02,18,11,35,11.70
2015,02,18,11,36,11.70
2015,02,18,11,37,11.80
2015,02,18,11,38,11.70
2015,02,18,11,39,11.70
2015,02,18,11,40,11.70
2015,02,18,11,41,11.70
2015,02,18,11,42,11.70
2015,02,18,11,43,11.80
2015,02,18,11,44,11.80
2015,02,18,11,45,11.80
2015,02,18,11,46,11.90
2015,02,18,11,47,11.90
2015,02,18,11,48,12.00
2015,02,18,11,49,11.90
2015,02,18,11,50,11.90
2015,02,18,11,51,11.90
2015,02,18,11,52,11.90
2015,02,18,11,53,11.90
2015,02,18,11,54,11.90
2015,02,18,11,55,12.00
2015,02,18,11,56,12.00
2015,02,18,11,57,12.00
2015,02,18,11,58,12.10
2015,02,18,11,59,12.10
2015,02,18,12,00,12.20
2015,02,18,12,01,12.20
2015,02,18,12,02,12.20
2015,02,18,12,03,12.30
2015,02,18,12,04,12.30
2015,02,18,12,05,12.30
2015,02,18,12,06,12.30
2015,02,18,12,07,12.30
2015,02,18,12,08,12.30
2015,02,18,12,09,12.30
2015,02,18,12,10,12.30
2015,02,18,12,11,12.20
2015,02,18,12,12,12.30
2015,02,18,12,13,12.30
2015,02,18,12,14,12.30
2015,02,18,12,15,12.30
2015,02,18,12,16,12.30
2015,02,18,12,17,12.30
2015,02,18,12,18,12.30
2015,02,18,12,19,12.30
2015,02,18,12,20,12.30
2015,02,18,12,21,12.30
2015,02,18,12,22,12.30
2015,02,18,12,23,12.30
2015,02,18,12,24,12.30
2015,02,18,12,25,12.30
2015,02,18,12,26,12.30
2015,02,18,12,27,12.30
2015,02,18,12,28,12.30
2015,02,18,12,29,12.30
2015,02,18,12,30,12.20
2015,02,18,12,31,12.10
2015,02,18,12,32,12.00
2015,02,18,12,33,11.90
2015,02,18,12,34,11.80
2015,02,18,12,35,11.70
2015,02,18,12,36,11.70
2015,02,18,12,37,11.60
2015,02,18,12,38,11.60
2015,02,18,12,39,11.60
2015,02,18,12,40,11.60
2015,02,18,12,41,11.60
2015,02,18,12,42,11.60
2015,02,18,12,43,11.60
2015,02,18,12,44,11.70
2015,02,18,12,45,11.70
2015,02,18,12,46,11.80
2015,02,18,12,47,11.80
2015,02,18,12,48,11.80
2015,02,18,12,49,11.80
2015,02,18,12,50,11.80
2015,02,18,12,51,11.80
2015,02,18,12,52,11.80
2015,02,18,12,53,11.80
2015,02,18,12,54,11.90
2015,02,18,12,55,11.90
2015,02,18,12,56,11.90
2015,02,18,12,57,11.90
2015,02,18,12,58,11.90
2015,02,18,12,59,11.90
2015,02,18,13,00,11.80
2015,02,18,13,01,11.80
2015,02,18,13,02,11.80
2015,02,18,13,03,11.80
2015,02,18,13,04,11.80
2015,02,18,13,05,11.80
2015,02,18,13,06,11.80
2015,02,18,13,07,11.80
2015,02,18,13,08,11.80
2015,02,18,13,09,11.80
2015,02,18,13,10,11.90
2015,02,18,13,11,11.90
2015,02,18,13,12,11.90
2015,02,18,13,13,11.90
2015,02,18,13,14,11.90
2015,02,18,13,15,11.90
2015,02,18,13,16,11.90
2015,02,18,13,17,11.90
2015,02,18,13,18,11.90
2015,02,18,13,19,11.90
2015,02,18,13,20,11.90
2015,02,18,13,21,11.90
2015,02,18,13,22,11.80
2015,02,18,13,23,11.80
2015,02,18,13,24,11.80
2015,02,18,13,25,11.80
2015,02,18,13,26,11.80
2015,02,18,13,27,11.80
2015,02,18,13,28,11.80
2015,02,18,13,29,11.80
2015,02,18,13,30,11.80
2015,02,18,13,31,11.70
2015,02,18,13,32,11.70
2015,02,18,13,33,11.70
2015,02,18,13,34,11.70
2015,02,18,13,35,11.70
2015,02,18,13,36,11.80
2015,02,18,13,37,11.80
2015,02,18,13,38,11.80
2015,02,18,13,39,11.80
2015,02,18,13,40,11.80
2015,02,18,13,41,11.80
2015,02,18,13,42,11.80
2015,02,18,13,43,11.90
2015,02,18,13,44,11.90
2015,02,18,13,45,11.90
2015,02,18,13,46,11.90
2015,02,18,13,47,11.90
2015,02,18,13,48,12.00
2015,02,18,13,49,12.00
2015,02,18,13,50,12.00
2015,02,18,13,51,12.10
2015,02,18,13,52,12.10
2015,02,18,13,53,12.10
2015,02,18,13,54,12.20
2015,02,18,13,55,12.20
2015,02,18,13,56,12.20
2015,02,18,13,57,12.30
2015,02,18,13,58,12.30
2015,02,18,13,59,12.30
2015,02,18,14,00,12.30
2015,02,18,14,01,12.30
2015,02,18,14,02,12.30
2015,02,18,14,03,12.30
2015,02,18,14,04,12.20
2015,02,18,14,05,12.20
2015,02,18,14,06,12.20
2015,02,18,14,07,12.20
2015,02,18,14,08,12.20
2015,02,18,14,09,12.20
2015,02,18,14,10,12.10
2015,02,18,14,11,12.10
2015,02,18,14,12,12.10
2015,02,18,14,13,12.10
2015,02,18,14,14,12.00
2015,02,18,14,15,12.00
2015,02,18,14,16,12.00
2015,02,18,14,17,12.00
2015,02,18,14,18,11.90
2015,02,18,14,19,11.90
2015,02,18,14,20,11.90
2015,02,18,14,21,11.90
2015,02,18,14,22,11.90
2015,02,18,14,23,11.90
2015,02,18,14,24,11.90
2015,02,18,14,25,11.80
2015,02,18,14,26,11.80
2015,02,18,14,27,11.80
2015,02,18,14,28,11.90
2015,02,18,14,29,11.90
2015,02,18,14,30,11.90
2015,02,18,14,31,11.90
2015,02,18,14,32,11.90
2015,02,18,14,33,11.80
2015,02,18,14,34,11.80
2015,02,18,14,35,11.80
2015,02,18,14,36,11.80
2015,02,18,14,37,11.80
2015,02,18,14,38,11.80
2015,02,18,14,39,11.80
2015,02,18,14,40,11.80
2015,02,18,14,41,11.80
2015,02,18,14,42,11.80
2015,02,18,14,43,11.80
2015,02,18,14,44,11.70
2015,02,18,14,45,11.70
2015,02,18,14,46,11.70
2015,02,18,14,47,11.70
2015,02,18,14,48,11.70
2015,02,18,14,49,11.70
2015,02,18,14,50,11.60
2015,02,18,14,51,11.60
2015,02,18,14,52,11.60
2015,02,18,14,53,11.60
2015,02,18,14,54,11.60
2015,02,18,14,55,11.60
2015,02,18,14,56,11.50
2015,02,18,14,57,11.50
2015,02,18,14,58,11.50
2015,02,18,14,59,11.50
2015,02,18,15,00,11.40
2015,02,18,15,01,11.40
2015,02,18,15,02,11.40
2015,02,18,15,03,11.40
2015,02,18,15,04,11.40
2015,02,18,15,05,11.40
2015,02,18,15,06,11.40
2015,02,18,15,07,11.30
2015,02,18,15,08,11.30
2015,02,18,15,09,11.30
2015,02,18,15,10,11.30
2015,02,18,15,11,11.30
2015,02,18,15,12,11.20
2015,02,18,15,13,11.20
2015,02,18,15,14,11.20
2015,02,18,15,15,11.20
2015,02,18,15,16,11.20
2015,02,18,15,17,11.20
2015,02,18,15,18,11.10
2015,02,18,15,19,11.10
2015,02,18,15,20,11.10
2015,02,18,15,21,11.10
2015,02,18,15,22,11.10
2015,02,18,15,23,11.00
2015,02,18,15,24,11.00
2015,02,18,15,25,11.00
2015,02,18,15,26,11.00
2015,02,18,15,27,11.00
2015,02,18,15,28,10.90
2015,02,18,15,29,11.00
2015,02,18,15,30,10.90
2015,02,18,15,31,11.00
2015,02,18,15,32,11.00
2015,02,18,15,33,11.00
2015,02,18,15,34,11.00
2015,02,18,15,35,11.00
2015,02,18,15,36,11.00
2015,02,18,15,37,11.00
2015,02,18,15,38,11.00
2015,02,18,15,39,11.00
2015,02,18,15,40,10.90
2015,02,18,15,41,10.90
2015,02,18,15,42,11.00
2015,02,18,15,43,11.00
2015,02,18,15,44,11.00
2015,02,18,15,45,11.00
2015,02,18,15,46,11.00
2015,02,18,15,47,11.00
2015,02,18,15,48,11.00
2015,02,18,15,49,11.00
2015,02,18,15,50,11.00
2015,02,18,15,51,10.90
2015,02,18,15,52,10.90
2015,02,18,15,53,10.90
2015,02,18,15,54,10.90
2015,02,18,15,55,10.90
2015,02,18,15,56,10.90
2015,02,18,15,57,10.90
2015,02,18,15,58,10.90
2015,02,18,15,59,10.80
2015,02,18,16,00,10.90
2015,02,18,16,01,10.90
2015,02,18,16,02,10.80
2015,02,18,16,03,10.80
2015,02,18,16,04,10.80
2015,02,18,16,05,10.80
2015,02,18,16,06,10.80
2015,02,18,16,07,10.80
2015,02,18,16,08,10.80
2015,02,18,16,09,10.80
2015,02,18,16,10,10.80
2015,02,18,16,11,10.80
2015,02,18,16,12,10.80
2015,02,18,16,13,10.80
2015,02,18,16,14,10.80
2015,02,18,16,15,10.80
2015,02,18,16,16,10.80
2015,02,18,16,17,10.80
2015,02,18,16,18,10.80
2015,02,18,16,19,10.80
2015,02,18,16,20,10.80
2015,02,18,16,21,10.80
2015,02,18,16,22,10.80
2015,02,18,16,23,10.80
2015,02,18,16,24,10.80
2015,02,18,16,25,10.80
2015,02,18,16,26,10.80
2015,02,18,16,27,10.80
2015,02,18,16,28,10.80
2015,02,18,16,29,10.80
2015,02,18,16,30,10.80
2015,02,18,16,31,10.70
2015,02,18,16,32,10.70
2015,02,18,16,33,10.70
2015,02,18,16,34,10.70
2015,02,18,16,35,10.70
2015,02,18,16,36,10.70
2015,02,18,16,37,10.70
2015,02,18,16,38,10.70
2015,02,18,16,39,10.60
2015,02,18,16,40,10.60
2015,02,18,16,41,10.60
2015,02,18,16,42,10.60
2015,02,18,16,43,10.60
2015,02,18,16,44,10.60
2015,02,18,16,45,10.60
2015,02,18,16,46,10.50
2015,02,18,16,47,10.50
2015,02,18,16,48,10.50
2015,02,18,16,49,10.50
2015,02,18,16,50,10.40
2015,02,18,16,51,10.40
2015,02,18,16,52,10.40
2015,02,18,16,53,10.30
2015,02,18,16,54,10.30
2015,02,18,16,55,10.30
2015,02,18,16,56,10.30
2015,02,18,16,57,10.20
2015,02,18,16,58,10.20
2015,02,18,16,59,10.20
2015,02,18,17,00,10.20
2015,02,18,17,01,10.10
2015,02,18,17,02,10.10
2015,02,18,17,03,10.10
2015,02,18,17,04,10.10
2015,02,18,17,05,10.10
2015,02,18,17,06,10.00
2015,02,18,17,07,10.00
2015,02,18,17,08,10.00
2015,02,18,17,09,10.00
2015,02,18,17,10,9.90
2015,02,18,17,11,9.90
2015,02,18,17,12,9.90
2015,02,18,17,13,9.90
2015,02,18,17,14,9.90
2015,02,18,17,15,9.80
2015,02,18,17,16,9.80
2015,02,18,17,17,9.80
2015,02,18,17,18,9.80
2015,02,18,17,19,9.80
2015,02,18,17,20,9.80
2015,02,18,17,21,9.80
2015,02,18,17,22,9.80
2015,02,18,17,23,9.80
2015,02,18,17,24,9.80
2015,02,18,17,25,9.80
2015,02,18,17,26,9.80
2015,02,18,17,27,9.70
2015,02,18,17,28,9.70
2015,02,18,17,29,9.70
2015,02,18,17,30,9.70
2015,02,18,17,31,9.70
2015,02,18,17,32,9.60
2015,02,18,17,33,9.60
2015,02,18,17,34,9.60
2015,02,18,17,35,9.60
2015,02,18,17,36,9.60
2015,02,18,17,37,9.50
2015,02,18,17,38,9.50
2015,02,18,17,39,9.40
2015,02,18,17,40,9.40
2015,02,18,17,41,9.30
2015,02,18,17,42,9.30
2015,02,18,17,43,9.30
2015,02,18,17,44,9.20
2015,02,18,17,45,9.20
2015,02,18,17,46,9.20
2015,02,18,17,47,9.20
2015,02,18,17,48,9.20